ARG1842 SABE-SACO

Flight info

Callsign ARG1842
Flight time 0h 59m
Altitude 34000
Route ATOVO4B ATOVO UW5 ASISA ASISA1Q
Aircraft B38M/M-SDE1FGHILORVWXY/HB1

Departure

Time 2026-05-05 02:17
Airport Aeroparque Jorge Newbery (SABE)

Arrival

Time 2026-05-05 03:17
Airport Ingeniero Aeronáutico Ambrosio L.V. Taravella International Airport (SACO)
Time Latitude Longitude Altitude Speed Heading
2026-05-05 01:48 -34.55839 -58.41370 18 ft 0 kts 207°
2026-05-05 01:49 -34.55837 -58.41369 28 ft 0 kts 207°
2026-05-05 02:05 -34.55837 -58.41368 28 ft 1 kts 207°
2026-05-05 02:05 -34.55823 -58.41360 28 ft 3 kts 211°
2026-05-05 02:06 -34.55810 -58.41347 28 ft 3 kts 246°
2026-05-05 02:06 -34.55809 -58.41336 28 ft 1 kts 301°
2026-05-05 02:06 -34.55818 -58.41318 28 ft 3 kts 301°
2026-05-05 02:06 -34.55828 -58.41298 28 ft 2 kts 301°
2026-05-05 02:07 -34.55831 -58.41292 28 ft 0 kts 301°
2026-05-05 02:09 -34.55824 -58.41305 28 ft 6 kts 301°
2026-05-05 02:09 -34.55794 -58.41364 28 ft 10 kts 304°
2026-05-05 02:10 -34.55750 -58.41441 28 ft 12 kts 304°
2026-05-05 02:10 -34.55705 -58.41535 28 ft 7 kts 259°
2026-05-05 02:10 -34.55750 -58.41572 28 ft 9 kts 211°
2026-05-05 02:10 -34.55783 -58.41636 28 ft 9 kts 274°
2026-05-05 02:11 -34.55761 -58.41691 28 ft 8 kts 295°
2026-05-05 02:11 -34.55731 -58.41765 28 ft 11 kts 299°
2026-05-05 02:11 -34.55685 -58.41849 28 ft 13 kts 306°
2026-05-05 02:11 -34.55629 -58.41947 28 ft 15 kts 303°
2026-05-05 02:12 -34.55564 -58.42062 28 ft 18 kts 306°
2026-05-05 02:12 -34.55437 -58.42265 28 ft 13 kts 307°
2026-05-05 02:12 -34.55395 -58.42333 28 ft 0 kts 307°
2026-05-05 02:13 -34.55390 -58.42341 28 ft 1 kts 307°
2026-05-05 02:13 -34.55381 -58.42358 28 ft 4 kts 298°
2026-05-05 02:13 -34.55380 -58.42359 28 ft 0 kts 298°
2026-05-05 02:15 -34.55378 -58.42364 28 ft 2 kts 294°
2026-05-05 02:15 -34.55369 -58.42400 28 ft 7 kts 284°
2026-05-05 02:15 -34.55365 -58.42471 28 ft 11 kts 255°
2026-05-05 02:15 -34.55415 -58.42489 28 ft 6 kts 124°
2026-05-05 02:16 -34.55432 -58.42459 28 ft 0 kts 124°
2026-05-05 02:16 -34.55569 -58.42215 29 ft 79 kts 124°
2026-05-05 02:16 -34.56034 -58.41379 28 ft 156 kts 124°
2026-05-05 02:17 -34.56711 -58.40160 493 ft 183 kts 123°
2026-05-05 02:17 -34.57359 -58.38875 1528 ft 182 kts 119°
2026-05-05 02:17 -34.57723 -58.37342 2222 ft 202 kts 82°
2026-05-05 02:17 -34.57107 -58.35752 2913 ft 220 kts 43°
2026-05-05 02:18 -34.55780 -58.34749 3733 ft 234 kts 20°
2026-05-05 02:18 -34.54281 -58.33766 4557 ft 255 kts 31°
2026-05-05 02:18 -34.52707 -58.32654 5404 ft 268 kts 15°
2026-05-05 02:18 -34.50898 -58.32597 6557 ft 262 kts 342°
2026-05-05 02:19 -34.49260 -58.33571 7541 ft 267 kts 320°
2026-05-05 02:19 -34.48065 -58.35291 8568 ft 270 kts 298°
2026-05-05 02:19 -34.47110 -58.37266 9560 ft 275 kts 301°
2026-05-05 02:19 -34.46067 -58.39247 10486 ft 284 kts 300°
2026-05-05 02:20 -34.44962 -58.41328 11119 ft 302 kts 300°
2026-05-05 02:20 -34.43801 -58.43507 11789 ft 315 kts 299°
2026-05-05 02:20 -34.42593 -58.45775 12514 ft 324 kts 299°
2026-05-05 02:20 -34.41371 -58.48089 13380 ft 328 kts 298°
2026-05-05 02:21 -34.40139 -58.50436 14216 ft 332 kts 298°
2026-05-05 02:21 -34.38893 -58.52812 15017 ft 336 kts 297°
2026-05-05 02:21 -34.37634 -58.55214 15817 ft 340 kts 297°
2026-05-05 02:21 -34.36364 -58.57641 16560 ft 344 kts 297°
2026-05-05 02:22 -34.35072 -58.60106 17278 ft 348 kts 297°
2026-05-05 02:22 -34.33772 -58.62586 18001 ft 350 kts 297°
2026-05-05 02:22 -34.32464 -58.65083 18660 ft 354 kts 297°
2026-05-05 02:22 -34.31133 -58.67619 19311 ft 358 kts 297°
2026-05-05 02:23 -34.29809 -58.70140 19981 ft 361 kts 297°
2026-05-05 02:23 -34.28460 -58.72710 20624 ft 364 kts 297°
2026-05-05 02:23 -34.27098 -58.75303 21239 ft 367 kts 297°
2026-05-05 02:23 -34.25722 -58.77919 21832 ft 369 kts 297°
2026-05-05 02:24 -34.24375 -58.80482 22402 ft 372 kts 297°
2026-05-05 02:24 -34.22953 -58.83181 22953 ft 375 kts 297°
2026-05-05 02:24 -34.21551 -58.85845 23503 ft 377 kts 297°
2026-05-05 02:24 -34.20137 -58.88527 24006 ft 380 kts 297°
2026-05-05 02:25 -34.18713 -58.91228 24556 ft 382 kts 297°
2026-05-05 02:25 -34.17278 -58.93949 25032 ft 385 kts 297°
2026-05-05 02:25 -34.15834 -58.96683 25520 ft 387 kts 297°
2026-05-05 02:25 -34.14380 -58.99436 25999 ft 390 kts 297°
2026-05-05 02:26 -34.12891 -59.02185 26454 ft 395 kts 302°
2026-05-05 02:26 -34.11115 -59.04694 26907 ft 399 kts 304°
2026-05-05 02:26 -34.09302 -59.07289 27335 ft 401 kts 304°
2026-05-05 02:26 -34.07533 -59.09857 27723 ft 404 kts 304°
2026-05-05 02:27 -34.05743 -59.12474 28134 ft 406 kts 303°
2026-05-05 02:27 -34.03942 -59.15118 28513 ft 409 kts 304°
2026-05-05 02:27 -34.02134 -59.17773 28909 ft 411 kts 303°
2026-05-05 02:27 -34.00310 -59.20449 29297 ft 413 kts 303°
2026-05-05 02:28 -33.98481 -59.23134 29658 ft 416 kts 304°
2026-05-05 02:28 -33.96640 -59.25833 29976 ft 419 kts 304°
2026-05-05 02:28 -33.94787 -59.28547 30341 ft 420 kts 304°
2026-05-05 02:28 -33.92924 -59.31276 30687 ft 423 kts 304°
2026-05-05 02:29 -33.91052 -59.34013 31023 ft 424 kts 304°
2026-05-05 02:29 -33.89172 -59.36762 31333 ft 427 kts 304°
2026-05-05 02:29 -33.87277 -59.39530 31639 ft 429 kts 303°
2026-05-05 02:29 -33.85376 -59.42304 32047 ft 429 kts 303°
2026-05-05 02:30 -33.83479 -59.45071 32488 ft 428 kts 303°
2026-05-05 02:30 -33.81584 -59.47833 32913 ft 427 kts 303°
2026-05-05 02:30 -33.79696 -59.50581 33316 ft 426 kts 303°
2026-05-05 02:30 -33.77837 -59.53287 33719 ft 425 kts 303°
2026-05-05 02:31 -33.75947 -59.56037 33920 ft 427 kts 303°
2026-05-05 02:31 -33.72117 -59.61597 33911 ft 433 kts 303°
2026-05-05 02:32 -33.68277 -59.67166 33915 ft 433 kts 303°
2026-05-05 02:32 -33.64426 -59.72741 33917 ft 433 kts 303°
2026-05-05 02:33 -33.60577 -59.78305 33915 ft 433 kts 303°
2026-05-05 02:33 -33.56725 -59.83865 33916 ft 433 kts 303°
2026-05-05 02:34 -33.52869 -59.89422 33916 ft 433 kts 303°
2026-05-05 02:34 -33.49036 -59.94937 33915 ft 433 kts 303°
2026-05-05 02:35 -33.45170 -60.00492 33916 ft 434 kts 303°
2026-05-05 02:35 -33.41303 -60.06040 33915 ft 433 kts 303°
2026-05-05 02:36 -33.37439 -60.11574 33915 ft 433 kts 303°
2026-05-05 02:36 -33.33578 -60.17096 33916 ft 433 kts 303°
2026-05-05 02:37 -33.30365 -60.21684 33915 ft 433 kts 303°
2026-05-05 02:37 -33.25872 -60.28093 33915 ft 432 kts 303°
2026-05-05 02:38 -33.22633 -60.32704 33915 ft 432 kts 303°
2026-05-05 02:38 -33.18764 -60.38204 33917 ft 432 kts 303°
2026-05-05 02:39 -33.14927 -60.43654 33915 ft 431 kts 303°
2026-05-05 02:39 -33.11060 -60.49135 33915 ft 431 kts 303°
2026-05-05 02:40 -33.07188 -60.54616 33916 ft 432 kts 304°
2026-05-05 02:40 -33.03324 -60.60078 33916 ft 431 kts 304°
2026-05-05 02:41 -32.99453 -60.65541 33916 ft 431 kts 304°
2026-05-05 02:41 -32.95580 -60.70998 33917 ft 431 kts 304°
2026-05-05 02:42 -32.91709 -60.76445 33916 ft 430 kts 304°
2026-05-05 02:42 -32.88468 -60.82298 33914 ft 423 kts 295°
2026-05-05 02:43 -32.85497 -60.88293 33915 ft 423 kts 295°
2026-05-05 02:43 -32.82515 -60.94323 33915 ft 423 kts 295°
2026-05-05 02:44 -32.79534 -61.00344 33913 ft 422 kts 295°
2026-05-05 02:44 -32.76549 -61.06364 33907 ft 422 kts 295°
2026-05-05 02:45 -32.73557 -61.12385 33905 ft 423 kts 295°
2026-05-05 02:45 -32.70569 -61.18391 33904 ft 422 kts 295°
2026-05-05 02:46 -32.67600 -61.24349 33909 ft 422 kts 295°
2026-05-05 02:46 -32.64612 -61.30333 33905 ft 422 kts 295°
2026-05-05 02:47 -32.61616 -61.36327 33907 ft 422 kts 296°
2026-05-05 02:47 -32.58624 -61.42301 33905 ft 421 kts 296°
2026-05-05 02:48 -32.55625 -61.48281 33906 ft 421 kts 296°
2026-05-05 02:48 -32.52624 -61.54254 33905 ft 421 kts 296°
2026-05-05 02:49 -32.49624 -61.60213 33907 ft 421 kts 296°
2026-05-05 02:49 -32.46642 -61.66130 33905 ft 421 kts 296°
2026-05-05 02:50 -32.43638 -61.72083 33907 ft 421 kts 296°
2026-05-05 02:50 -32.40630 -61.78031 33906 ft 421 kts 296°
2026-05-05 02:51 -32.37621 -61.83974 33908 ft 421 kts 296°
2026-05-05 02:51 -32.34614 -61.89905 33906 ft 420 kts 296°
2026-05-05 02:52 -32.31604 -61.95831 33907 ft 420 kts 296°
2026-05-05 02:52 -32.28588 -62.01764 33909 ft 421 kts 296°
2026-05-05 02:53 -32.25575 -62.07682 33907 ft 420 kts 296°
2026-05-05 02:53 -32.22578 -62.13559 33907 ft 420 kts 296°
2026-05-05 02:54 -32.19558 -62.19471 33905 ft 420 kts 296°
2026-05-05 02:54 -32.16532 -62.25386 33909 ft 420 kts 296°
2026-05-05 02:55 -32.13505 -62.31293 33905 ft 420 kts 296°
2026-05-05 02:55 -32.10480 -62.37188 33897 ft 420 kts 296°
2026-05-05 02:56 -32.07449 -62.43085 33898 ft 420 kts 296°
2026-05-05 02:56 -32.04419 -62.48972 33897 ft 420 kts 296°
2026-05-05 02:57 -32.01384 -62.54857 33897 ft 420 kts 296°
2026-05-05 02:57 -31.98348 -62.60736 33898 ft 420 kts 296°
2026-05-05 02:58 -31.95302 -62.66626 33899 ft 421 kts 297°
2026-05-05 02:58 -31.92277 -62.72465 33853 ft 418 kts 297°
2026-05-05 02:58 -31.90779 -62.75354 33292 ft 411 kts 297°
2026-05-05 02:59 -31.89284 -62.78234 32474 ft 413 kts 297°
2026-05-05 02:59 -31.87781 -62.81129 31593 ft 416 kts 297°
2026-05-05 02:59 -31.86263 -62.84049 30679 ft 420 kts 298°
2026-05-05 02:59 -31.84733 -62.86989 29676 ft 424 kts 298°
2026-05-05 03:00 -31.83183 -62.89969 28599 ft 430 kts 298°
2026-05-05 03:00 -31.81611 -62.92986 27466 ft 435 kts 298°
2026-05-05 03:00 -31.80019 -62.96039 26283 ft 441 kts 299°
2026-05-05 03:00 -31.78400 -62.99140 25069 ft 446 kts 300°
2026-05-05 03:01 -31.76768 -63.02265 24007 ft 449 kts 300°
2026-05-05 03:01 -31.75149 -63.05362 23297 ft 442 kts 300°
2026-05-05 03:01 -31.73549 -63.08421 22572 ft 436 kts 300°
2026-05-05 03:01 -31.71970 -63.11438 21829 ft 431 kts 300°
2026-05-05 03:02 -31.70404 -63.14428 21094 ft 427 kts 300°
2026-05-05 03:02 -31.68871 -63.17353 20369 ft 423 kts 300°
2026-05-05 03:02 -31.67344 -63.20275 19664 ft 418 kts 299°
2026-05-05 03:02 -31.65966 -63.23257 18980 ft 413 kts 297°
2026-05-05 03:03 -31.64611 -63.26210 18308 ft 409 kts 297°
2026-05-05 03:03 -31.63264 -63.29124 17638 ft 405 kts 298°
2026-05-05 03:03 -31.61930 -63.32004 17096 ft 398 kts 298°
2026-05-05 03:03 -31.60616 -63.34837 16592 ft 392 kts 298°
2026-05-05 03:04 -31.59322 -63.37622 16105 ft 386 kts 298°
2026-05-05 03:04 -31.58048 -63.40364 15611 ft 380 kts 298°
2026-05-05 03:04 -31.56788 -63.43071 15133 ft 375 kts 298°
2026-05-05 03:04 -31.55546 -63.45740 14679 ft 370 kts 298°
2026-05-05 03:05 -31.54322 -63.48368 14289 ft 364 kts 298°
2026-05-05 03:05 -31.53123 -63.50939 14008 ft 355 kts 298°
2026-05-05 03:05 -31.51955 -63.53445 13766 ft 346 kts 298°
2026-05-05 03:05 -31.50816 -63.55883 13551 ft 336 kts 298°
2026-05-05 03:06 -31.49714 -63.58245 13245 ft 323 kts 299°
2026-05-05 03:06 -31.48649 -63.60522 12743 ft 313 kts 299°
2026-05-05 03:06 -31.47622 -63.62719 12297 ft 303 kts 299°
2026-05-05 03:06 -31.46625 -63.64850 11883 ft 293 kts 299°
2026-05-05 03:07 -31.45660 -63.66912 11509 ft 283 kts 299°
2026-05-05 03:07 -31.44740 -63.68877 11149 ft 274 kts 299°
2026-05-05 03:07 -31.43847 -63.70833 10669 ft 270 kts 294°
2026-05-05 03:07 -31.43488 -63.72968 10161 ft 270 kts 272°
2026-05-05 03:08 -31.43487 -63.75146 9690 ft 266 kts 274°
2026-05-05 03:08 -31.43474 -63.77278 9365 ft 257 kts 274°
2026-05-05 03:08 -31.43468 -63.79341 9027 ft 249 kts 273°
2026-05-05 03:08 -31.43468 -63.81336 8659 ft 242 kts 274°
2026-05-05 03:09 -31.43470 -63.83275 8280 ft 236 kts 274°
2026-05-05 03:09 -31.43472 -63.85177 7893 ft 231 kts 274°
2026-05-05 03:09 -31.43475 -63.87045 7500 ft 227 kts 274°
2026-05-05 03:09 -31.43479 -63.88883 7098 ft 224 kts 274°
2026-05-05 03:10 -31.43482 -63.90693 6706 ft 221 kts 274°
2026-05-05 03:10 -31.43484 -63.92483 6311 ft 218 kts 274°
2026-05-05 03:10 -31.43486 -63.94254 5913 ft 216 kts 274°
2026-05-05 03:10 -31.43488 -63.96015 5521 ft 217 kts 274°
2026-05-05 03:11 -31.43490 -63.97795 5165 ft 219 kts 274°
2026-05-05 03:11 -31.43492 -63.99585 4814 ft 221 kts 274°
2026-05-05 03:11 -31.43493 -64.01386 4483 ft 222 kts 274°
2026-05-05 03:11 -31.43495 -64.03182 4209 ft 217 kts 275°
2026-05-05 03:12 -31.43496 -64.04931 3936 ft 213 kts 275°
2026-05-05 03:12 -31.43496 -64.06642 3669 ft 206 kts 275°
2026-05-05 03:12 -31.43496 -64.08254 3563 ft 194 kts 275°
2026-05-05 03:12 -31.43496 -64.09813 3559 ft 191 kts 275°
2026-05-05 03:13 -31.43496 -64.11367 3573 ft 191 kts 275°
2026-05-05 03:13 -31.43494 -64.12926 3580 ft 191 kts 276°
2026-05-05 03:13 -31.43493 -64.14484 3592 ft 191 kts 276°
2026-05-05 03:13 -31.43280 -64.15969 3539 ft 177 kts 304°
2026-05-05 03:14 -31.42488 -64.16938 3215 ft 162 kts 328°
2026-05-05 03:14 -31.41538 -64.17669 2712 ft 166 kts 332°
2026-05-05 03:14 -31.40578 -64.18408 2673 ft 161 kts 329°
2026-05-05 03:14 -31.39577 -64.19125 2781 ft 173 kts 329°
2026-05-05 03:15 -31.38543 -64.19859 2630 ft 175 kts 329°
2026-05-05 03:15 -31.37493 -64.20534 2516 ft 168 kts 338°
2026-05-05 03:15 -31.36359 -64.20805 2325 ft 169 kts 357°
2026-05-05 03:15 -31.35195 -64.20777 2164 ft 164 kts
2026-05-05 03:16 -31.34080 -64.20808 1935 ft 157 kts 357°
2026-05-05 03:16 -31.33017 -64.20809 1743 ft 149 kts 359°
2026-05-05 03:16 -31.32020 -64.20827 1624 ft 134 kts 359°
2026-05-05 03:16 -31.31284 -64.20830 1621 ft 72 kts 359°
2026-05-05 03:17 -31.30989 -64.20836 1618 ft 13 kts
2026-05-05 03:17 -31.30934 -64.20831 1614 ft 4 kts 293°
2026-05-05 03:17 -31.30957 -64.20848 1614 ft 6 kts 165°
2026-05-05 03:17 -31.31020 -64.20833 1619 ft 12 kts 172°
2026-05-05 03:18 -31.31108 -64.20832 1619 ft 14 kts 180°
2026-05-05 03:18 -31.31210 -64.20833 1621 ft 16 kts 179°
2026-05-05 03:18 -31.31327 -64.20830 1622 ft 18 kts 181°
2026-05-05 03:18 -31.31427 -64.20831 1616 ft 3 kts 193°
2026-05-05 03:19 -31.31462 -64.20886 1616 ft 6 kts 259°
2026-05-05 03:19 -31.31463 -64.20948 1622 ft 9 kts 272°
2026-05-05 03:19 -31.31476 -64.21029 1619 ft 11 kts 242°
2026-05-05 03:20 -31.31508 -64.21067 1615 ft 0 kts 208°
2026-05-05 03:20 -31.31509 -64.21067 1615 ft 0 kts 208°
2026-05-05 03:20 -31.31534 -64.21080 1622 ft 7 kts 205°
2026-05-05 03:21 -31.31582 -64.21100 1615 ft 4 kts 185°
2026-05-05 03:21 -31.31608 -64.21117 1615 ft 5 kts 243°
2026-05-05 03:21 -31.31612 -64.21148 1615 ft 3 kts 268°
2026-05-05 03:21 -31.31612 -64.21165 1615 ft 0 kts 269°